Weather History for Gillette, WY

Change the Weather History Date:

Friday, August 30, 2013

  Actual Average Record
Temperature  
Mean Temperature 79 °F 66 °F  
Max Temperature 95 °F 82 °F 103 °F (1948)
Min Temperature 62 °F 49 °F 36 °F (1964)
Degree Days  
Heating Degree Days 0 3  
Month to date heating degree days 0 36  
Since 1 June heating degree days 117 197  
Since 1 July heating degree days 0 55  
Cooling Degree Days 14 4  
Month to date cooling degree days 249 176  
Year to date cooling degree days 521 458  
Since 1 June cooling degree days 513 450  
Growing Degree Days 28 (Base 50)    
Moisture  
Dew Point 45 °F    
Average Humidity 33    
Maximum Humidity 52    
Minimum Humidity 14    
Precipitation  
Precipitation 0.00 in 0.03 in 0.63 in (1962)
Month to date precipitation 0.99 0.92  
Year to date precipitation 13.43 10.45  
Sea Level Pressure  
Sea Level Pressure 29.92 in    
Wind  
Wind Speed 6 mph (WSW)    
Max Wind Speed 17 mph    
Max Gust Speed 23 mph    
Visibility 10 miles    
Events      
T = Trace of Precipitation, MM = Missing Value Source: NWS Daily Summary

Daily Weather History Graph

Daily Weather History Graph

Search for Another Location

Airport:

Trip Planner

Search our weather history database for the weather conditions in past years. The results will help you decide how hot, cold, wet, or windy it might be!

Date:

Astronomy

Aug. 30, 2013 Rise Set
Actual Time 6:23 AM MDT 7:41 PM MDT
Civil Twilight 5:52 AM MDT 8:11 PM MDT
Nautical Twilight 5:16 AM MDT 8:47 PM MDT
Astronomical Twilight 4:38 AM MDT 9:25 PM MDT
Moon 12:56 AM MDT (8/30) 4:05 PM MDT (8/30)
Length of Visible Light 14h 18m
Length of Day
13h 18m
Waning Crescent, 28% of the Moon is Illuminated
Aug 30
Waning Crescent
Sep 5
New
Sep 12
First Quarter
Sep 19
Full
Sep 26
Last Quarter

Hourly Weather History & Observations

Time (MDT) Temp. Dew Point Humidity Pressure Visibility Wind Dir Wind Speed Gust Speed Precip Events Conditions
12:53 AM 68.0 °F 48.0 °F 49% 30.00 in 10.0 mi South 8.1 mph - N/A   Clear
1:53 AM 70.0 °F 48.0 °F 46% 29.97 in 10.0 mi South 10.4 mph - N/A   Clear
2:53 AM 66.0 °F 48.9 °F 54% 29.98 in 10.0 mi East 5.8 mph - N/A   Clear
3:53 AM 66.9 °F 48.9 °F 52% 29.96 in 10.0 mi Calm Calm - N/A   Partly Cloudy
4:53 AM 66.0 °F 48.9 °F 54% 29.96 in 10.0 mi East 3.5 mph - N/A   Clear
5:53 AM 66.0 °F 48.9 °F 54% 29.96 in 10.0 mi ESE 3.5 mph - N/A   Clear
6:53 AM 66.0 °F 48.9 °F 54% 29.98 in 10.0 mi SE 4.6 mph - N/A   Clear
7:53 AM 75.0 °F 51.1 °F 43% 29.99 in 10.0 mi SSW 5.8 mph - N/A   Clear
8:53 AM 80.1 °F 51.1 °F 36% 29.99 in 10.0 mi SW 11.5 mph - N/A   Clear
9:53 AM 84.0 °F 51.1 °F 32% 29.97 in 10.0 mi WSW 9.2 mph - N/A   Clear
10:53 AM 87.1 °F 50.0 °F 28% 29.96 in 10.0 mi WNW 9.2 mph - N/A   Clear
11:53 AM 91.0 °F 46.9 °F 22% 29.96 in 10.0 mi ENE 4.6 mph - N/A   Clear
12:53 PM 91.9 °F 43.0 °F 18% 29.94 in 10.0 mi NW 8.1 mph - N/A   Clear
1:53 PM 93.0 °F 39.9 °F 16% 29.91 in 10.0 mi WNW 12.7 mph 18.4 mph N/A   Clear
2:53 PM 95.0 °F 39.9 °F 15% 29.88 in 10.0 mi West 8.1 mph - N/A   Mostly Cloudy
3:53 PM 93.9 °F 37.9 °F 14% 29.86 in 10.0 mi WNW 4.6 mph - N/A   Clear
4:53 PM 95.0 °F 39.0 °F 14% 29.85 in 10.0 mi NW 12.7 mph 16.1 mph N/A   Partly Cloudy
5:53 PM 93.0 °F 39.0 °F 15% 29.83 in 10.0 mi NNE 5.8 mph - N/A   Clear
6:53 PM 87.1 °F 43.0 °F 21% 29.85 in 10.0 mi NNE 4.6 mph - N/A   Clear
7:53 PM 78.1 °F 41.0 °F 27% 29.85 in 10.0 mi North 5.8 mph - N/A   Clear
8:53 PM 68.0 °F 41.0 °F 37% 29.88 in 10.0 mi WNW 3.5 mph - N/A   Clear
9:53 PM 68.0 °F 41.0 °F 37% 29.87 in 10.0 mi SW 3.5 mph - N/A   Clear
10:53 PM 62.1 °F 42.1 °F 48% 29.87 in 10.0 mi SW 4.6 mph - N/A   Clear
11:53 PM 66.0 °F 42.1 °F 42% 29.86 in 10.0 mi SSW 4.6 mph - N/A   Clear